Temperature
23 24 24 24 28 29 29 30 30 30 30 29 28 28 29 29 28 27 22 21 21 20 20 20 20 20 20 20 20 20 20 20 20 20 20 20 19 19 19 19 19 19 19 19 19 19 19 19 19
23 23 24 27 29 28 29 30 30 29 29 28 28 27 28 28 25 23 21 20 20 20 20 19 20 20 20 20 20 20 20 20 20 20 20 19 19 19 19 19 19 19 19 19 19 19 19 19 19
23 23 26 28 28 28 29 30 30 29 29 28 29 28 28 27 24 22 21 20 19 19 20 20 20 20 20 20 20 20 20 20 20 20 19 19 19 19 19 19 19 19 19 19 19 18 18 18 18
22 24 26 28 28 29 30 30 29 30 29 29 29 29 27 24 23 22 21 20 19 19 19 20 20 19 20 20 20 20 20 20 20 19 19 19 19 19 19 18 18 18 18 18 18 18 18 18 18
23 26 27 27 28 29 30 29 29 30 30 29 28 29 27 22 22 21 21 20 19 19 19 20 20 20 20 20 20 20 20 20 19 19 19 19 19 18 18 18 18 18 18 18 18 18 18 18 18
24 26 26 27 28 29 29 28 28 29 30 29 29 29 27 22 21 21 20 20 20 19 19 19 20 19 19 19 19 19 19 19 19 19 19 19 18 18 18 18 18 18 18 18 18 18 18 18 18
25 26 26 27 28 29 29 28 28 29 30 29 29 29 26 22 21 21 20 20 20 19 19 19 19 19 19 19 19 19 19 19 19 19 18 18 18 18 18 18 18 18 18 18 18 18 18 18 18
24 26 26 27 28 28 29 28 28 28 29 28 28 29 28 23 21 21 21 20 20 19 19 19 18 18 18 19 19 19 19 19 19 18 18 18 18 18 18 18 18 18 18 18 18 18 18 18 18
22 25 26 27 27 28 28 28 28 27 28 28 27 27 26 22 21 20 20 20 19 19 19 19 18 18 18 18 18 18 18 18 18 18 18 18 17 17 17 17 18 18 18 18 18 18 18 18 17
23 25 26 27 28 28 28 27 28 28 28 28 28 25 23 22 21 21 21 20 19 19 19 19 19 18 18 18 18 18 18 18 18 17 17 17 17 17 17 17 18 18 18 18 18 18 18 17 17
24 25 26 26 25 26 26 27 27 28 29 29 28 26 23 22 21 22 21 21 20 19 19 19 19 18 18 18 18 18 18 18 17 17 17 17 17 17 17 17 17 17 17 17 17 17 17 17 17
23 24 24 24 25 25 26 26 27 27 28 28 27 26 24 23 22 22 22 22 21 20 19 19 18 18 18 18 18 18 18 18 18 17 17 17 17 17 17 16 17 16 17 16 17 17 17 17 17
23 24 23 23 24 24 25 26 26 27 27 27 26 25 24 23 23 23 22 22 21 20 19 19 18 18 18 18 18 18 18 18 18 17 17 17 17 17 17 16 16 17 17 16 16 17 16 16 17
24 23 24 24 24 24 25 26 26 27 26 26 26 25 24 23 23 22 22 21 21 20 19 19 18 18 18 18 18 18 18 18 18 17 17 17 17 17 16 16 16 16 16 16 16 16 16 16 17
22 23 24 25 25 25 25 26 27 26 26 26 25 25 24 23 22 22 21 20 20 19 19 18 18 18 18 18 18 18 18 18 18 17 17 17 17 17 17 17 16 16 16 16 16 16 16 16 16
23 23 24 26 26 26 26 26 27 25 26 26 25 24 23 22 22 21 21 20 19 19 19 18 18 18 19 18 18 18 18 17 17 17 17 17 17 17 17 17 16 16 16 16 16 16 16 16 16
23 24 25 25 26 26 26 26 25 24 25 25 24 24 23 21 21 20 20 19 19 19 19 19 18 18 18 18 18 18 17 17 17 17 17 17 17 17 17 17 17 16 16 16 16 16 16 16 16
24 24 24 25 25 25 25 24 24 23 24 24 23 22 21 20 19 19 19 19 19 19 19 19 19 19 18 18 18 17 17 17 17 17 17 17 17 17 17 17 17 16 16 16 16 15 15 15 15
23 24 24 24 25 24 24 23 22 22 23 22 22 21 20 19 18 18 18 18 18 18 19 19 19 19 19 18 18 17 17 17 17 17 17 17 17 17 17 16 16 16 16 15 15 15 15 14 14
23 23 24 24 24 24 23 21 21 21 20 20 20 19 18 17 17 16 17 17 17 17 18 18 19 19 19 18 18 17 17 16 16 16 16 16 16 16 16 16 15 15 15 15 14 14 14 14 14
22 23 24 24 24 24 23 21 20 19 19 18 18 17 17 16 16 16 16 16 16 17 17 17 18 18 18 18 17 17 16 16 16 16 16 15 15 15 15 15 15 14 14 14 14 13 13 13 13
22 23 23 23 23 24 24 23 20 20 19 18 17 16 15 15 15 15 15 15 15 16 16 16 17 17 17 17 17 16 16 16 15 15 15 15 14 14 14 14 14 13 13 13 13 13 12 12 12
23 24 23 23 24 24 24 24 21 20 19 17 16 14 14 14 14 14 14 14 14 14 15 15 16 16 16 16 16 16 15 15 15 14 14 14 14 13 13 13 13 12 12 12 12 12 11 11 11
23 23 23 23 24 23 24 24 21 21 19 17 15 13 13 13 13 13 13 13 13 13 14 14 15 15 15 15 15 15 15 14 14 13 13 13 12 12 12 12 12 11 11 11 11 11 10 10 10
23 22 22 22 23 23 23 23 20 19 18 17 14 13 12 12 12 12 12 12 12 13 13 13 14 14 14 14 14 14 14 13 13 12 12 12 11 11 11 10 10 10 10 10 10 9 9 9 9
23 23 22 22 23 23 22 22 18 17 16 14 13 12 12 11 11 11 11 11 11 12 12 12 13 13 13 13 13 13 12 12 12 11 11 10 10 9 9 9 9 9 9 8 8 8 8 8 7
23 23 24 23 23 23 22 20 17 16 15 14 13 12 11 10 10 10 10 11 11 11 11 11 12 12 12 12 12 11 11 11 10 10 9 9 8 8 8 8 8 7 7 7 7 7 7 7 6
24 24 23 23 22 22 21 21 20 16 15 14 13 11 10 10 10 10 10 10 10 10 10 10 10 10 10 10 10 10 10 9 9 8 8 8 7 7 7 7 7 6 6 6 6 6 6 6 5
22 23 23 23 23 23 21 21 22 19 16 14 12 11 10 9 9 9 9 9 9 9 9 9 9 9 9 9 9 8 8 8 7 7 7 6 6 6 6 6 6 6 6 5 5 5 5 4 4
23 23 23 22 22 23 23 20 19 19 17 14 12 10 9 9 9 8 8 8 8 8 8 8 8 8 8 7 8 7 7 7 6 6 6 6 6 5 5 5 5 5 4 4 4 4 3 3 3
Wind_Speed
10 6 6 6 7 7 4 4 3 3 2 3 2 2 3 4 4 3 5 15 17 20 22 22 17 17 19 21 22 23 23 23 22 21 20 18 17 16 15 14 13 13 13 13 13 13 13 12 12
7 5 6 6 9 8 6 5 3 5 5 3 1 3 4 2 3 5 8 15 19 20 22 22 19 18 19 21 22 23 23 23 22 21 20 18 17 15 14 13 13 12 12 12 12 12 12 11 10
6 6 6 8 11 10 6 5 2 4 2 1 1 2 2 2 3 5 10 18 19 19 21 22 20 19 19 20 21 22 22 22 21 20 19 18 16 15 14 13 12 11 11 11 11 11 10 10 9
5 7 7 11 16 13 6 3 3 5 3 2 3 2 2 4 3 8 17 20 20 19 20 23 20 19 19 20 20 21 21 21 20 19 18 17 15 14 13 12 11 11 10 10 10 9 9 8 7
7 9 14 17 19 14 9 6 7 8 5 3 4 3 3 4 7 14 19 20 20 19 20 23 20 19 19 19 19 19 19 19 19 18 17 16 15 13 12 11 11 10 10 9 9 8 7 7 6
9 10 17 20 20 16 11 9 9 9 7 4 4 5 3 7 10 17 19 19 19 19 19 22 20 19 19 19 18 18 18 18 18 17 16 15 14 12 11 10 10 9 9 8 8 7 6 5 4
14 15 21 22 20 18 13 9 10 9 8 5 4 4 5 9 12 17 18 18 18 18 18 21 21 19 18 17 17 18 17 17 17 16 15 14 13 12 10 10 9 8 8 7 7 6 5 4 3
10 13 21 22 21 19 12 10 10 10 8 4 4 5 4 12 15 17 17 17 17 17 17 19 20 20 19 19 17 16 16 16 16 15 14 13 12 11 9 10 9 7 7 6 6 5 4 4 3
8 13 19 20 18 17 11 11 11 7 8 6 5 3 4 17 18 18 17 16 16 16 16 17 18 18 18 18 18 17 15 14 15 14 13 12 11 11 10 8 8 6 5 5 4 4 4 5 7
10 16 19 13 12 12 11 12 11 9 11 10 7 4 9 18 20 20 20 20 19 18 17 16 16 17 17 15 16 15 15 15 14 12 13 11 7 6 5 11 6 5 5 5 5 4 7 10 8
10 14 12 10 10 11 12 12 12 13 13 10 7 7 13 17 19 20 19 19 19 18 17 16 15 15 15 12 13 12 11 12 12 11 11 7 7 7 6 7 9 8 8 8 7 8 7 6 4
9 11 11 10 9 11 13 13 13 15 13 6 6 6 14 17 19 19 19 18 18 18 17 16 15 13 13 12 11 10 9 9 9 10 10 8 6 5 5 5 5 6 6 4 5 5 4 5 5
13 11 10 12 12 12 12 14 13 14 11 8 6 8 14 16 17 16 16 16 17 17 16 16 14 13 11 9 8 9 9 9 9 8 9 7 6 6 5 5 4 5 4 5 5 5 4 5 5
7 9 11 12 13 12 13 13 12 11 8 7 7 9 12 14 15 15 15 15 15 15 15 14 14 13 11 9 8 7 8 7 7 8 8 8 6 5 5 5 5 5 4 4 4 4 4 5 4
7 9 11 13 13 11 10 12 11 7 6 6 7 9 10 11 13 14 14 13 13 14 14 14 13 13 12 11 10 8 8 8 7 7 7 7 7 5 5 5 4 4 4 4 4 4 4 4 4
9 10 10 8 10 10 11 10 5 2 6 7 7 8 9 9 10 10 11 10 11 12 13 13 12 13 12 10 8 7 7 7 6 6 6 8 7 6 5 5 4 3 3 3 3 3 4 4 4
10 10 8 7 6 7 11 6 6 3 4 6 7 7 8 8 7 7 7 9 9 10 11 12 13 13 12 11 8 7 6 6 6 6 6 6 7 7 6 5 3 3 3 3 3 2 4 3 3
7 7 7 7 6 6 7 5 6 6 4 6 7 7 7 7 6 5 4 5 7 8 9 10 11 12 11 10 8 7 6 5 5 4 4 4 5 5 4 3 2 2 2 2 1 2 1 2 2
4 5 6 5 4 4 7 6 7 7 6 7 7 8 8 8 7 6 4 4 5 6 8 9 10 11 10 9 9 8 7 5 3 2 2 3 3 3 3 1 1 1 2 2 3 2 2 1 2
8 8 7 6 5 4 8 8 7 8 8 8 8 9 9 8 8 7 6 5 4 4 4 6 8 9 10 8 7 6 6 5 4 4 5 4 3 3 3 2 1 1 1 2 2 2 2 1 1
10 9 6 5 6 8 9 7 7 8 9 10 10 10 10 9 9 8 7 7 6 4 3 2 3 5 7 8 8 8 6 5 4 5 4 6 7 7 6 5 3 3 1 0 0 1 3 2 1
9 8 7 7 8 9 11 7 8 8 8 9 9 10 10 10 10 9 9 9 8 7 5 4 3 3 4 6 8 10 7 6 4 5 6 9 11 11 10 9 7 6 4 3 3 2 2 1 1
7 5 8 8 9 7 9 7 9 9 7 8 8 10 10 10 11 11 11 11 10 9 8 7 8 8 6 5 6 7 7 6 7 8 10 10 10 13 13 12 11 9 7 7 7 6 5 4 3
7 6 7 8 10 11 10 8 8 7 8 8 8 9 10 11 11 12 12 12 12 12 12 11 12 12 10 9 9 10 11 11 11 10 10 9 8 10 13 14 13 11 9 9 8 8 9 7 7
10 10 9 11 11 9 7 6 6 9 9 11 10 10 10 11 11 12 13 13 13 13 13 13 14 14 13 13 13 12 12 12 12 11 11 10 9 9 10 12 11 10 10 10 9 9 9 8 8
12 13 10 8 11 8 7 5 8 10 11 12 12 11 11 12 12 12 12 12 13 14 13 14 15 15 15 16 15 15 14 11 11 13 12 11 10 10 11 12 12 12 11 11 9 8 8 7 7
10 12 9 7 5 6 7 6 7 10 11 12 12 12 12 12 12 13 13 13 14 15 14 15 16 16 16 17 17 17 16 15 15 14 13 10 9 10 12 12 12 12 12 11 9 8 8 7 6
7 7 7 9 8 8 8 9 10 16 14 12 12 12 12 12 13 13 13 14 14 15 15 16 17 17 17 17 16 15 16 15 14 14 14 12 11 11 11 11 11 11 11 10 8 7 8 7 6
7 8 7 8 7 7 8 5 6 17 17 15 14 13 12 13 13 13 13 13 14 14 15 15 15 16 16 16 16 16 15 14 14 13 13 12 11 11 11 11 10 10 10 9 8 8 8 7 7
5 5 7 8 7 7 5 4 6 14 17 17 16 14 13 14 13 14 14 14 14 14 14 14 14 15 15 15 15 15 14 14 13 13 12 12 11 11 11 10 10 10 9 9 9 8 8 8 8
Wind_Direction
283 280 266 266 257 237 203 127 95 66 55 22 318 275 297 304 314 15 112 155 151 149 148 151 147 144 142 142 143 144 144 144 144 143 141 140 138 134 131 130 128 126 125 123 121 120 119 118 119
294 276 258 257 256 235 186 148 110 43 23 356 217 241 266 282 43 99 137 150 151 148 151 156 147 145 142 141 142 143 144 145 144 143 142 141 139 136 134 133 131 129 127 125 123 121 120 121 121
263 248 262 254 243 240 195 156 81 13 23 332 279 250 283 33 105 130 143 151 150 149 153 149 150 147 144 142 143 144 145 145 144 143 143 142 140 138 136 135 132 131 128 126 124 122 122 124 125
235 227 241 245 240 234 236 199 304 312 320 314 298 255 121 55 100 132 144 152 150 152 154 151 155 150 148 146 145 146 146 145 145 144 143 142 141 139 138 135 133 131 129 126 124 124 124 126 127
229 238 238 239 239 236 234 253 281 291 299 300 283 263 144 97 110 135 148 153 154 155 155 154 157 153 152 151 149 147 147 146 145 144 143 142 141 140 138 135 133 131 129 127 126 125 124 126 128
221 230 237 237 236 234 233 245 262 274 282 288 278 260 124 120 138 147 152 157 157 156 155 153 158 158 157 156 153 151 149 147 145 144 143 143 142 141 138 135 133 131 129 127 126 125 124 123 125
233 230 239 241 240 233 231 240 252 263 272 290 292 258 133 144 146 152 154 159 159 159 156 157 163 164 163 161 158 155 152 149 147 146 146 146 144 142 139 136 133 132 130 130 130 129 129 129 131
242 240 241 241 241 238 230 234 245 260 271 296 270 252 164 150 152 153 154 159 160 162 162 162 166 167 170 170 166 160 156 154 151 150 150 148 148 148 148 155 138 138 137 136 135 137 141 151 160
230 236 239 236 239 240 227 233 237 250 261 257 251 287 84 145 153 155 155 161 163 166 167 169 167 170 176 173 166 167 164 160 158 160 157 167 178 169 173 146 136 150 150 149 150 156 170 195 187
219 234 240 247 251 245 228 235 242 242 242 237 218 160 139 154 161 164 165 167 168 172 174 174 171 173 178 173 167 177 178 173 185 175 175 191 180 182 173 127 155 169 174 179 177 192 209 230 210
225 240 247 245 248 253 246 240 243 246 241 234 227 182 165 169 172 175 173 173 173 173 175 178 177 180 178 174 172 180 183 177 191 183 183 187 185 186 191 177 177 190 199 206 179 212 225 234 247
235 242 250 250 244 244 246 247 244 241 244 257 260 202 177 181 182 181 178 176 174 175 178 181 179 183 188 181 177 182 183 181 188 182 192 185 196 201 202 213 204 202 210 221 235 237 232 250 246
235 243 239 244 247 249 252 248 249 247 250 260 246 195 186 187 185 182 177 175 176 177 180 181 184 180 187 188 188 190 191 186 187 184 195 199 202 207 204 216 224 233 228 220 239 248 241 250 241
243 247 248 246 244 242 243 242 237 243 246 237 212 192 186 186 183 176 176 178 180 180 182 180 187 182 187 190 194 189 193 192 193 196 195 202 213 207 215 219 218 238 240 249 253 250 246 249 256
251 254 245 235 232 229 228 228 225 240 235 213 191 176 174 178 176 176 177 179 181 181 182 183 188 185 191 196 197 193 196 194 201 195 196 203 214 207 225 233 225 235 245 245 254 255 254 250 248
229 234 231 201 208 206 214 205 173 212 208 192 175 161 157 160 169 170 172 177 180 182 181 186 189 188 191 197 198 200 200 195 201 200 198 204 214 211 228 240 235 233 248 253 252 254 250 251 257
216 220 205 167 181 191 212 181 82 66 158 162 156 150 146 145 150 153 165 172 178 182 181 187 193 191 191 192 192 201 195 199 202 201 203 201 211 211 218 233 236 229 234 243 252 247 264 263 270
207 207 195 177 149 182 183 130 74 62 99 124 127 128 129 126 115 119 139 162 172 177 179 184 189 191 188 187 190 193 194 195 196 196 199 193 199 204 212 215 203 221 227 221 226 224 272 294 287
257 235 199 170 139 170 148 110 74 64 83 98 105 108 108 100 90 88 101 125 144 159 172 180 188 185 185 188 190 187 186 175 163 145 142 159 166 155 159 179 161 196 214 201 185 186 202 251 281
234 230 207 172 154 172 137 109 81 67 73 79 88 92 91 87 81 75 74 87 113 139 158 176 188 187 187 186 185 178 158 148 137 117 96 83 84 93 113 100 106 126 185 187 180 191 215 211 255
226 229 217 187 162 168 159 141 115 89 83 81 80 82 82 79 79 74 69 66 71 79 109 148 176 181 182 175 169 152 141 141 142 124 94 63 59 59 65 76 72 70 69 148 221 253 242 226 199
223 218 231 219 217 194 209 192 146 127 101 85 79 77 76 75 75 70 65 58 53 52 60 73 91 114 139 160 168 166 165 156 133 111 94 73 60 57 57 62 62 57 52 48 40 28 344 298 208
238 222 227 228 234 220 207 213 149 148 127 99 84 79 76 73 73 68 62 59 53 51 58 67 73 72 84 113 140 142 127 115 107 96 86 74 63 59 60 62 63 61 58 55 53 49 43 43 37
229 218 221 227 223 220 209 218 163 159 142 122 98 84 79 75 73 69 65 61 55 54 56 61 66 64 67 79 92 108 115 114 107 100 93 81 74 69 67 69 68 65 63 61 60 57 55 51 50
219 217 208 207 211 208 182 210 119 110 116 122 111 95 84 78 74 69 64 62 59 58 59 63 67 64 64 71 76 84 93 97 98 97 93 90 82 75 68 69 69 68 68 66 64 63 57 52 50
211 224 232 222 209 182 175 174 114 105 107 111 109 102 92 83 77 72 67 65 65 64 64 68 71 70 69 70 72 75 80 85 85 84 86 83 81 77 75 72 70 68 66 64 62 61 57 52 48
208 222 244 262 239 203 166 129 126 128 125 122 116 106 95 87 82 78 72 69 68 67 66 70 74 75 74 76 77 76 78 82 86 86 85 84 83 83 78 75 71 65 61 59 57 58 48 41 33
249 224 222 239 225 215 185 187 179 166 156 141 128 116 105 98 90 83 78 75 73 73 72 71 73 75 76 78 81 84 83 84 86 86 85 85 85 85 83 77 73 68 62 55 48 54 45 36 32
203 211 230 244 258 242 205 177 146 164 160 149 136 126 116 107 99 93 88 83 81 79 77 77 78 79 78 79 81 83 84 86 88 89 90 89 86 83 79 76 73 67 60 53 48 43 37 28 21
231 229 229 239 235 255 254 121 107 151 150 143 135 126 118 111 104 99 95 90 87 83 81 80 80 81 83 85 85 84 85 86 87 86 87 87 84 81 79 75 70 65 59 51 43 34 28 19 10
Height
1534 1533 1532 1532 1523 1514 1513 1510 1509 1510 1510 1514 1515 1514 1513 1514 1516 1522 1524 1524 1526 1529 1531 1535 1539 1543 1547 1550 1553 1556 1559 1561 1563 1565 1567 1568 1570 1571 1572 1573 1574 1575 1575 1576 1576 1576 1577 1577 1577
1533 1533 1534 1529 1519 1519 1515 1508 1510 1511 1514 1515 1515 1516 1515 1515 1520 1522 1522 1523 1527 1530 1532 1536 1540 1544 1548 1551 1554 1557 1560 1562 1565 1567 1568 1570 1571 1572 1574 1575 1575 1576 1577 1577 1577 1578 1578 1578 1579
1532 1533 1532 1522 1517 1516 1513 1508 1510 1512 1514 1515 1514 1515 1515 1517 1521 1521 1521 1523 1527 1531 1534 1537 1541 1545 1549 1552 1555 1558 1561 1564 1566 1568 1569 1571 1572 1574 1575 1576 1576 1577 1578 1578 1578 1579 1579 1579 1580
1533 1533 1529 1522 1516 1507 1506 1508 1511 1511 1512 1513 1514 1514 1517 1520 1521 1521 1520 1524 1528 1532 1535 1538 1542 1546 1550 1553 1557 1559 1562 1565 1567 1569 1570 1572 1573 1575 1576 1577 1577 1578 1578 1579 1579 1580 1580 1580 1581
1531 1528 1522 1518 1512 1505 1507 1511 1513 1511 1511 1512 1513 1512 1516 1520 1519 1520 1521 1525 1529 1534 1537 1539 1543 1548 1551 1554 1558 1561 1563 1565 1568 1569 1571 1573 1574 1576 1577 1577 1578 1579 1579 1579 1580 1580 1581 1581 1582
1527 1522 1519 1515 1508 1504 1507 1512 1513 1511 1509 1510 1511 1511 1515 1519 1520 1521 1524 1527 1532 1535 1539 1540 1544 1549 1552 1556 1559 1561 1564 1566 1568 1570 1572 1574 1575 1576 1577 1578 1578 1579 1579 1580 1580 1581 1581 1582 1582
1523 1516 1512 1508 1505 1503 1506 1510 1511 1510 1508 1509 1511 1510 1515 1519 1520 1522 1526 1530 1534 1537 1540 1542 1545 1549 1553 1556 1559 1562 1565 1567 1569 1571 1573 1574 1576 1577 1578 1578 1578 1579 1579 1580 1580 1580 1581 1582 1582
1520 1515 1509 1505 1504 1503 1504 1509 1511 1510 1509 1511 1512 1509 1511 1518 1519 1523 1527 1531 1535 1538 1541 1544 1547 1550 1553 1557 1560 1563 1565 1568 1570 1571 1573 1574 1576 1577 1577 1578 1578 1579 1579 1579 1580 1580 1581 1581 1582
1521 1516 1507 1502 1502 1502 1504 1509 1509 1510 1509 1510 1510 1511 1513 1515 1518 1522 1526 1530 1534 1538 1541 1545 1548 1551 1555 1558 1560 1563 1565 1568 1570 1571 1573 1575 1577 1578 1578 1578 1578 1579 1579 1579 1579 1580 1580 1581 1582
1517 1510 1504 1501 1502 1502 1504 1507 1507 1508 1506 1506 1508 1511 1513 1514 1517 1520 1524 1528 1532 1536 1540 1545 1548 1551 1555 1558 1559 1562 1565 1567 1570 1572 1573 1575 1577 1578 1579 1577 1578 1578 1578 1579 1579 1580 1580 1581 1583
1511 1507 1503 1505 1508 1508 1506 1507 1507 1506 1502 1502 1505 1509 1511 1514 1516 1520 1523 1527 1531 1535 1540 1544 1548 1551 1555 1558 1559 1562 1565 1567 1569 1571 1572 1574 1575 1577 1578 1578 1578 1578 1578 1580 1579 1580 1582 1582 1583
1510 1508 1508 1507 1508 1508 1507 1505 1504 1503 1501 1502 1504 1506 1509 1512 1515 1519 1523 1527 1531 1535 1539 1543 1547 1550 1554 1557 1559 1562 1564 1566 1569 1570 1571 1573 1575 1576 1578 1578 1579 1579 1579 1579 1580 1581 1581 1581 1581
1509 1507 1508 1508 1507 1506 1505 1504 1503 1500 1501 1502 1503 1505 1507 1510 1514 1519 1523 1527 1531 1535 1538 1542 1545 1548 1551 1555 1558 1561 1563 1566 1568 1569 1570 1572 1574 1575 1576 1577 1577 1578 1579 1579 1579 1580 1579 1579 1580
1504 1505 1504 1503 1502 1503 1502 1500 1500 1498 1499 1500 1501 1503 1506 1509 1514 1518 1522 1526 1530 1534 1537 1541 1543 1546 1549 1553 1556 1559 1562 1563 1566 1567 1569 1570 1572 1573 1574 1574 1575 1576 1577 1577 1578 1578 1577 1578 1578
1506 1504 1500 1497 1497 1497 1499 1497 1495 1496 1497 1498 1500 1502 1505 1509 1513 1517 1521 1525 1529 1532 1536 1539 1542 1545 1548 1552 1555 1557 1560 1562 1564 1565 1566 1567 1569 1570 1571 1572 1572 1574 1574 1574 1575 1575 1575 1575 1576
1501 1499 1495 1489 1492 1493 1496 1492 1491 1495 1495 1496 1499 1502 1505 1510 1514 1517 1521 1524 1528 1531 1534 1537 1541 1543 1546 1549 1552 1556 1558 1560 1562 1563 1564 1565 1567 1568 1568 1570 1571 1571 1572 1572 1572 1573 1573 1573 1573
1496 1492 1489 1489 1489 1488 1490 1487 1493 1495 1495 1496 1499 1502 1506 1510 1514 1517 1520 1523 1526 1529 1532 1535 1538 1541 1544 1547 1550 1553 1555 1557 1559 1561 1562 1563 1564 1565 1566 1567 1568 1568 1569 1569 1570 1570 1570 1570 1570
1491 1488 1489 1487 1488 1488 1489 1492 1496 1497 1497 1498 1500 1503 1507 1510 1514 1516 1519 1522 1525 1527 1530 1533 1536 1539 1541 1544 1547 1550 1552 1554 1556 1558 1559 1560 1561 1561 1563 1564 1564 1565 1566 1566 1566 1566 1567 1567 1566
1493 1491 1490 1489 1489 1490 1493 1497 1499 1500 1499 1500 1503 1505 1508 1511 1514 1516 1518 1520 1523 1525 1527 1530 1533 1535 1538 1541 1544 1546 1549 1551 1553 1554 1556 1557 1558 1558 1559 1560 1561 1562 1562 1562 1562 1562 1563 1563 1563
1495 1495 1491 1490 1490 1491 1496 1501 1503 1504 1505 1505 1507 1508 1511 1513 1515 1516 1517 1519 1521 1523 1525 1527 1530 1533 1535 1537 1540 1542 1545 1547 1549 1550 1552 1554 1555 1555 1555 1556 1557 1558 1558 1558 1558 1558 1559 1559 1559
1495 1493 1489 1489 1490 1490 1493 1502 1505 1508 1509 1510 1511 1511 1513 1514 1516 1517 1518 1519 1520 1522 1523 1525 1528 1530 1532 1534 1536 1538 1540 1543 1544 1546 1548 1549 1551 1551 1551 1552 1554 1554 1555 1555 1555 1556 1556 1556 1556
1493 1488 1490 1490 1490 1487 1487 1495 1504 1506 1510 1513 1514 1515 1516 1517 1517 1518 1519 1519 1520 1521 1522 1524 1525 1527 1529 1531 1534 1535 1537 1539 1541 1542 1544 1546 1547 1548 1549 1550 1551 1552 1552 1552 1552 1552 1553 1553 1553
1487 1485 1487 1487 1486 1485 1486 1488 1501 1503 1509 1515 1518 1518 1518 1519 1519 1520 1520 1520 1521 1521 1522 1523 1524 1525 1527 1529 1531 1533 1535 1537 1539 1540 1542 1543 1545 1546 1547 1548 1549 1549 1549 1550 1550 1550 1550 1550 1551
1486 1487 1487 1485 1483 1493 1484 1486 1499 1500 1507 1515 1519 1521 1521 1521 1521 1522 1522 1522 1522 1522 1522 1523 1523 1525 1526 1528 1529 1531 1532 1535 1536 1538 1540 1542 1544 1545 1546 1547 1547 1548 1548 1549 1548 1549 1549 1549 1549
1486 1489 1493 1492 1490 1487 1482 1486 1501 1503 1509 1514 1520 1522 1523 1523 1524 1524 1524 1524 1524 1524 1524 1524 1524 1525 1526 1527 1529 1530 1532 1534 1536 1537 1539 1541 1543 1545 1546 1546 1547 1547 1548 1548 1548 1548 1548 1548 1548
1483 1483 1488 1490 1487 1483 1486 1492 1507 1510 1514 1518 1522 1524 1525 1526 1526 1526 1526 1527 1526 1526 1526 1526 1526 1527 1528 1529 1530 1531 1533 1535 1537 1539 1540 1542 1544 1545 1546 1547 1548 1548 1549 1549 1549 1549 1549 1548 1548
1480 1478 1472 1477 1476 1484 1489 1499 1510 1514 1517 1521 1523 1526 1527 1528 1529 1529 1529 1529 1529 1529 1529 1529 1529 1529 1530 1531 1532 1534 1536 1537 1539 1540 1542 1544 1546 1547 1548 1549 1549 1550 1550 1550 1550 1549 1549 1548 1548
1475 1472 1477 1479 1486 1490 1492 1494 1496 1510 1516 1520 1524 1527 1529 1531 1531 1532 1532 1532 1532 1532 1533 1532 1533 1533 1534 1534 1535 1537 1539 1541 1543 1544 1545 1547 1548 1549 1550 1551 1551 1552 1551 1551 1551 1550 1549 1548 1547
1478 1478 1476 1473 1472 1480 1491 1491 1483 1497 1509 1517 1524 1528 1531 1532 1534 1534 1535 1535 1536 1536 1537 1536 1537 1537 1538 1539 1540 1541 1543 1545 1547 1548 1549 1550 1551 1552 1553 1553 1553 1553 1552 1552 1551 1551 1549 1548 1547
1474 1474 1475 1481 1480 1476 1477 1495 1492 1497 1507 1516 1523 1528 1532 1534 1536 1537 1538 1539 1540 1540 1541 1541 1542 1542 1543 1545 1545 1546 1548 1550 1551 1552 1553 1554 1554 1555 1555 1555 1555 1554 1554 1553 1552 1551 1549 1548 1547